Temp
70 70 67 64 66 64 64 62 62 62 58 57 55 52 51 50 50 49 46 47 48 47
67 68 69 67 68 64 63 61 60 58 55 52 51 51 51 50 46 46 45 46 46 46
68 68 68 66 65 62 61 59 59 56 52 50 50 50 48 46 46 45 45 45 45 45
68 68 63 63 62 61 58 57 56 53 50 50 48 48 46 45 45 44 44 45 44 45
64 63 61 59 58 57 55 54 52 50 49 49 47 46 45 44 45 44 44 45 45 47
58 56 54 52 51 51 50 50 50 49 47 47 46 46 45 46 45 44 45 46 47 48
54 52 51 51 50 50 50 49 48 48 47 47 46 46 46 45 44 45 46 47 47 48
52 52 52 50 50 50 49 49 48 47 46 46 46 46 45 46 44 45 45 47 48 48
54 54 53 51 50 49 49 49 49 46 45 44 46 41 41 43 44 46 46 44 45 46
57 55 54 54 53 51 49 48 46 44 44 45 46 41 41 40 43 43 42 42 43 46
55 55 54 53 51 50 50 48 47 46 46 46 49 41 39 39 41 41 42 42 43 42
55 52 53 51 50 49 49 48 48 49 48 45 39 38 38 40 38 39 37 41 40 39
55 54 51 50 50 50 50 50 50 49 46 43 37 37 36 37 32 31 30 33 36 36
55 53 52 50 49 49 47 46 41 39 40 42 39 34 35 35 30 28 29 30 30 31
MSLP
1013.08 1012.97 1013.93 1014.68 1015.30 1015.55 1016.05 1016.55 1016.93 1017.49 1018.25 1019.03 1019.54 1020.05 1020.78 1021.41 1022.16 1022.48 1023.45 1024.26 1024.48 1024.64
1012.07 1012.81 1013.01 1013.70 1014.33 1014.73 1015.44 1016.08 1016.80 1017.50 1018.32 1019.20 1019.95 1020.46 1020.92 1021.58 1022.13 1022.58 1023.48 1024.00 1024.33 1024.59
1011.33 1012.43 1012.52 1012.93 1013.22 1014.45 1015.45 1016.29 1017.08 1017.77 1018.59 1019.44 1019.96 1020.63 1021.14 1021.80 1022.28 1022.89 1023.68 1023.97 1024.34 1024.49
1011.28 1011.84 1012.75 1013.12 1013.93 1014.80 1015.73 1016.49 1017.18 1018.03 1018.84 1019.57 1020.14 1020.68 1021.19 1022.16 1022.56 1023.08 1023.60 1023.98 1024.08 1023.99
1011.22 1011.73 1012.45 1013.31 1014.34 1015.26 1016.08 1016.70 1017.44 1018.29 1018.98 1019.67 1020.39 1020.95 1021.55 1022.26 1022.83 1023.31 1023.62 1023.64 1023.77 1023.52
1012.06 1012.73 1013.61 1014.52 1015.30 1015.96 1016.62 1017.37 1017.97 1018.57 1019.28 1019.95 1020.49 1021.08 1021.80 1022.21 1022.68 1023.00 1023.23 1023.34 1023.28 1023.09
1012.88 1013.59 1014.53 1015.38 1016.10 1016.69 1017.18 1017.82 1018.50 1019.10 1019.63 1020.33 1020.66 1021.34 1021.65 1022.28 1022.73 1022.99 1023.06 1023.08 1022.93 1022.74
1013.54 1014.53 1015.24 1015.87 1016.42 1017.02 1017.69 1018.27 1018.80 1019.27 1019.92 1020.50 1021.00 1021.58 1021.96 1022.38 1022.74 1022.84 1022.84 1022.66 1022.42 1022.14
1013.64 1014.51 1015.28 1016.10 1016.77 1017.43 1018.00 1018.48 1019.00 1019.60 1020.02 1020.58 1021.15 1021.68 1022.02 1022.37 1022.61 1022.63 1022.52 1022.21 1021.91 1021.66
1013.86 1014.72 1015.40 1015.96 1016.67 1017.36 1018.01 1018.62 1019.28 1019.81 1020.30 1020.77 1021.19 1021.63 1021.82 1022.17 1022.43 1022.29 1022.18 1022.02 1021.79 1021.53
1014.20 1014.83 1015.44 1016.22 1016.95 1017.57 1018.14 1018.81 1019.40 1019.78 1020.14 1020.37 1020.80 1021.46 1021.99 1022.26 1022.47 1022.29 1022.22 1022.05 1021.82 1021.64
1014.30 1015.05 1015.75 1016.50 1017.18 1017.72 1018.18 1018.57 1018.97 1019.27 1019.60 1020.42 1021.56 1021.95 1022.09 1022.01 1022.18 1022.27 1022.32 1022.21 1022.05 1021.90
1014.43 1015.06 1015.82 1016.50 1016.98 1017.34 1017.71 1018.18 1018.65 1019.21 1019.83 1020.44 1021.65 1022.08 1022.24 1022.27 1022.44 1022.67 1022.82 1022.69 1022.33 1022.00
1014.51 1015.12 1015.76 1016.34 1016.89 1017.29 1017.87 1018.61 1019.42 1020.12 1020.45 1020.86 1021.34 1022.12 1022.32 1022.64 1022.91 1023.11 1023.04 1022.67 1022.28 1022.02
Wind_Speed
11 9 7 7 8 6 7 8 9 9 6 7 6 6 8 7 6 7 5 5 2 2
9 13 10 12 9 5 4 5 7 6 7 6 7 8 8 5 6 7 5 5 4 3
12 12 8 6 6 6 8 7 6 8 8 8 8 6 6 6 7 8 4 4 5 4
11 8 4 5 6 6 7 8 8 8 8 9 8 9 9 6 7 7 5 4 5 8
8 5 6 8 8 8 8 7 8 8 8 7 9 9 9 8 7 6 6 6 7 8
8 10 10 9 9 8 8 8 7 8 9 9 9 8 7 6 7 6 6 6 7 9
10 11 10 9 9 8 8 9 9 8 9 7 8 7 8 6 4 4 5 5 6 8
12 10 10 10 9 10 9 9 9 10 9 7 6 4 5 4 4 2 4 8 9 9
11 11 11 11 10 10 10 10 9 7 7 7 4 8 7 4 1 5 8 7 6 7
12 12 12 11 12 11 9 9 8 6 6 6 5 10 9 6 4 5 5 6 6 7
12 12 11 10 9 9 7 7 7 6 6 5 2 9 8 2 5 4 6 7 8 9
12 11 10 10 8 7 5 6 6 6 5 12 10 12 9 6 5 5 6 7 8 10
11 10 9 8 8 7 6 5 4 6 7 10 9 12 14 8 4 5 5 6 9 11
9 9 9 7 6 5 5 8 7 7 5 7 7 10 16 14 5 3 5 6 7 7
Wind_Direction
194 216 189 195 235 187 207 207 187 196 144 141 140 140 128 127 139 114 105 117 83 71
193 226 208 206 218 196 157 133 148 136 127 113 116 131 141 141 125 122 122 132 150 187
189 216 222 193 143 132 123 119 132 134 132 139 136 136 115 123 118 118 131 153 190 230
193 197 155 139 116 109 109 121 126 131 135 141 137 139 129 121 123 136 161 187 212 242
139 132 91 82 95 112 114 102 121 132 134 125 125 120 124 136 152 170 195 217 244 258
99 86 86 81 81 84 96 108 116 123 126 133 132 132 137 151 163 179 207 239 257 271
98 96 95 98 98 104 108 111 111 119 126 125 128 141 148 159 172 208 241 264 281 278
100 100 105 104 103 104 106 111 118 120 126 137 140 146 131 155 207 234 278 273 267 265
114 122 118 116 118 117 126 126 130 128 121 120 125 143 175 194 195 263 270 276 301 304
126 121 126 134 138 130 125 127 115 122 136 161 167 170 186 187 254 281 297 288 291 298
132 130 121 115 117 125 123 124 142 154 169 188 111 103 80 98 259 324 335 336 333 332
119 121 127 126 121 120 135 147 170 166 148 95 87 91 69 39 38 9 341 332 340 339
142 135 129 139 152 164 152 116 93 90 79 98 102 87 66 47 39 15 358 331 318 315
135 136 138 122 128 128 98 93 82 75 61 79 81 83 71 55 46 23 331 322 321 319